Regional Weather Roundup
Issued by NWS Midland/Odessa, TX

Skip options and go directly to product.
Home | Oldest Version | Previous Version | Current Version | All | Text Only | Save Text | Print | Product List | Glossary On

Skip product version selection by date and time.   
729
ASUS44 KMAF 180710
RWRMAF
MIDLAND AREA WEATHER ROUNDUP
NATIONAL WEATHER SERVICE MIDLAND TX
200 AM CDT SAT APR 18 2015

...IN SOUTHWEST TEXAS AND SOUTHEAST NEW MEXICO...

CITY           SKY/WX    TMP DP  RH WIND       PRES   REMARKS
ALPINE         CLOUDY    60  35  38 CALM      30.08F
ANDREWS        MOCLDY    55  31  39 NW3       29.98S
ARTESIA        CLEAR     46  25  42 W8        29.97S
BIG SPRING     CLEAR     61  56  84 S6        29.98R
CARLSBAD       PTCLDY    53  23  31 W9        29.97R
DRYDEN           N/A     67  63  87 NE5       29.93S
FORT STOCKTON  PTCLDY    62  35  36 S6        29.99R
GUAD PASS      MOCLDY    53   5  14 S8        30.07S
HOBBS          PTCLDY    46  37  71 SW6       30.00S
MARFA          CLOUDY    57  34  41 E7        30.07R
MIDLAND AIRPK  PTCLDY    59  49  71 CALM      29.99R
MIDLAND INTL   PTCLDY    56  47  71 VRB3      29.97R
ODESSA         PTCLDY    55  33  43 CALM      29.98S
PECOS          MOCLDY    57  28  33 S3        29.98R
PRESIDIO       FAIR      69  37  30 N8        29.95S
SEMINOLE       PTCLDY    51  33  50 NW5       30.00R
SNYDER         CLEAR    N/A N/A N/A SE7       29.96R
WINK           MOCLDY    59  15  18 CALM      29.96S
$$
...OTHER STATIONS IN TEXAS...

CITY           SKY/WX    TMP DP  RH WIND       PRES   REMARKS
ABILENE        CLOUDY    61  59  93 SE13      29.95F
AMARILLO       CLOUDY    56  55  97 S10       29.98S
AUSTIN         CLOUDY    64  64 100 NW7       29.89F
BROWNSVILLE    CLOUDY    76  75  97 E3        29.84F FOG
CORPUS CHRISTI CLOUDY    69  67  93 SE8       29.85R
DALLAS FTW     CLOUDY    63  61  93 CALM      29.94S
DEL RIO        CLOUDY    65  62  90 E3        29.90S
EL PASO        PTCLDY    56  11  16 SE7       30.00S
HOUSTON INT    LGT RAIN  69  68  96 SE10      29.87F
LUBBOCK        PTCLDY    55  52  89 S3        29.98R
SAN ANGELO     CLEAR     57  54  89 SE3       29.94F
SAN ANTONIO    MOCLDY    68  65  90 N3        29.89F
WACO           CLOUDY    66  64  93 W5        29.93F
WICHITA FALLS  NOT AVBL
$$
...OTHER LOCATIONS IN NEW MEXICO...

CITY           SKY/WX    TMP DP  RH WIND       PRES   REMARKS
ALAMAGORDO     PTCLDY    50  10  20 CALM      30.02S
ALBUQUERQUE    MOCLDY    43  29  57 N7        30.05S WCI  39
CANNON AFB     NOT AVBL
CLOVIS         CLEAR     45  18  33 NW12      29.99S WCI  39
HOLLOMAN AFB   PTCLDY    52  15  22 CALM      30.00S
ROSWELL        CLEAR     49  28  44 NW8       30.00R
RUIDOSO        CLEAR     39  10  30 NW8       30.09R WCI  34
SANTA FE       LGT SNOW  32  31  96 E8        30.05F FOG     WCI  25
TRUTH OR CONSE CLEAR     49  16  26 NW9       30.04R
TUCUMCARI      PTCLDY    42  15  33 W3        29.98S
$$

USA.gov is the U.S. government's official web portal to all federal, state and local government web resources and services.